Regional Weather Roundup
Issued by NWS Cleveland, OH

Home | Current Version | Previous Version | Graphics & Text | Print | Product List | Glossary On
Versions: 1 2 3 4 5 6 7 8 9 10 11 12 13 14 15 16 17 18 19 20 21 22 23 24 25 26 27 28 29 30 31 32 33 34 35 36 37 38 39 40 41 42 43 44 45 46 47 48 49 50
000
ASUS41 KCLE 301802
RWRCLE
OHIO REGIONAL WEATHER ROUNDUP
NATIONAL WEATHER SERVICE CLEVELAND, OH
200 PM EDT MON MAY 30 2016

NOTE: "FAIR" INDICATES FEW OR NO CLOUDS BELOW 12,000 FEET WITH NO
SIGNIFICANT WEATHER AND/OR OBSTRUCTIONS TO VISIBILITY.

OHZ001>008-015>018-024>027-034-035-043-044-301900-
   NORTHWEST OHIO

CITY           SKY/WX    TMP DP  RH WIND       PRES   REMARKS
DEFIANCE       MOSUNNY   85  53  33 W8G18     30.01F
FINDLAY        MOSUNNY   84  54  35 W9G18     30.01F
TOLEDO EXPRESS MOSUNNY   83  52  34 W7        30.00F
TOLEDO EXEC    MOSUNNY   83  55  38 W12       30.01F
LIMA           SUNNY     83  54  36 W15       30.03F
$$

OHZ009>014-019>023-028>033-038-089-301900-
   NORTHEAST OHIO

CITY           SKY/WX    TMP DP  RH WIND       PRES   REMARKS
CLE-HOPKINS    MOSUNNY   81  58  45 W12G18    30.04S
CLE-LAKEFRONT  MOSUNNY   73  64  73 W7        30.02S
CUY CO. ARPT   MOSUNNY   77  59  53 NW12      30.04S
LORAIN-ELYRIA  SUNNY     80  56  43 N8        30.03S
ASHTABULA      MOSUNNY   77  60  55 NW9       30.03R
AKRON-CANTON   PTSUNNY   82  58  43 W6        30.03S
WOOSTER        MOSUNNY   84  57  39 N12       30.04S
MANSFIELD      MOSUNNY   81  60  48 W8        30.05S
YOUNGSTOWN     CLOUDY    79  59  50 NW7       30.03S
$$

OHZ042-051>053-060>062-070>072-077>081-301900-
  SOUTHWEST OHIO

CITY           SKY/WX    TMP DP  RH WIND       PRES   REMARKS
CINC-COVINGTON MOSUNNY   85  57  38 NW7       30.04F
CINC-LUNKEN    MOSUNNY   84  60  44 NW10      30.03F
HAMILTON       SUNNY     85  56  37 VRB6      30.04S
DAYTON         MOSUNNY   83  55  38 N8        30.05F
WRIGHT-PAT AFB MOSUNNY   82  57  42 N10       30.03F
DAYTON GENERAL MOSUNNY   83  55  38 N13       30.03F
WILMINGTON     MOSUNNY   81  58  45 N8        30.04F
$$

OHZ036-037-039>041-045>050-054>059-063>069-073>076-082>088-301900-
  CENTRAL AND SOUTHEAST OHIO

CITY           SKY/WX    TMP DP  RH WIND       PRES   REMARKS
COLUMBUS       PTSUNNY   82  58  43 NW8       30.02F
OSU AIRPORT    PTSUNNY   82  59  45 NW7       30.03F
BOLTON FIELD   PTSUNNY  N/A N/A N/A NE6       30.04S
RICKENBACK AFB NOT AVBL
NEWARK         SUNNY     84  57  39 NW9       30.03S
MARION         MOSUNNY   81  56  42 W12G17    30.04F
LANCASTER      MOSUNNY   83  59  44 NW8       30.04F
ZANESVILLE     SUNNY     83  56  39 N8        30.03F
NEW PHILLY     MOSUNNY   83  55  38 VRB3      30.03S
$$




USA.gov is the U.S. government's official web portal to all federal, state and local government web resources and services.